Location: Newark
(45.8667°N, 9.7333°E)
Time: 14:59:58
(UTC+00:00)

A-11 Canister half - Pass Details

Date: 22 January 2020
Orbit: 1517 x 1683 km, 47.2° (Epoch: 26 February)

Event Time Altitude Azimuth Distance (km) Brightness Sun altitude
Rises 23:27:09 0° 226° (SW) 4,729 - -63.7°
Reaches altitude 10° 23:30:18 10° 223° (SW) 3,728 - -63.8°
Maximum altitude 23:39:23 57° 147° (SSE) 1,748 - -63.7°
Drops below altitude 10° 23:48:21 10° 72° (ENE) 3,681 - -63.6°
Exits shadow 23:51:23 - 69° (ENE) 4,652 11.7 -63.5°
Sets 23:51:26 0° 69° (ENE) 4,667 11.7 -63.5°
